Time,TemperatureF,DewpointF,PressureIn,WindDirection,WindDirectionDegrees,WindSpeedMPH,WindSpeedGustMPH,Humidity,HourlyPrecipIn,Conditions,Clouds,dailyrainin,SoftwareType,DateUTC
2013-08-18 00:03:00,55.6,54.8,30.28,ESE,112,0.0,-999.0,97,-99.99,,,0.00,Acu-Link.com,2013-08-18 04:03:00,
2013-08-18 00:18:00,55.4,54.8,30.28,North,0,0.0,-999.0,98,-99.99,,,0.00,Acu-Link.com,2013-08-18 04:18:00,
2013-08-18 00:34:00,55.0,54.4,30.28,NE,45,0.0,-999.0,98,-99.99,,,0.00,Acu-Link.com,2013-08-18 04:34:00,
2013-08-18 00:49:00,54.9,54.3,30.28,SSE,157,0.0,-999.0,98,-99.99,,,0.00,Acu-Link.com,2013-08-18 04:49:00,
2013-08-18 01:04:00,54.7,54.1,30.28,NE,45,0.0,-999.0,98,-99.99,,,0.00,Acu-Link.com,2013-08-18 05:04:00,
2013-08-18 01:19:00,54.3,53.7,30.28,ENE,67,0.0,-999.0,98,-99.99,,,0.00,Acu-Link.com,2013-08-18 05:19:00,
2013-08-18 01:35:00,54.0,53.4,30.28,ESE,112,0.0,-999.0,98,-99.99,,,0.00,Acu-Link.com,2013-08-18 05:35:00,
2013-08-18 01:50:00,53.8,53.2,30.27,ESE,112,0.0,-999.0,98,-99.99,,,0.00,Acu-Link.com,2013-08-18 05:50:00,
2013-08-18 02:05:00,53.6,53.0,30.27,ESE,112,0.0,-999.0,98,-99.99,,,0.00,Acu-Link.com,2013-08-18 06:05:00,
2013-08-18 02:21:00,53.4,52.8,30.27,ESE,112,0.0,-999.0,98,-99.99,,,0.00,Acu-Link.com,2013-08-18 06:21:00,
2013-08-18 02:36:00,53.2,52.6,30.27,ESE,112,0.0,-999.0,98,-99.99,,,0.00,Acu-Link.com,2013-08-18 06:36:00,
2013-08-18 02:51:00,52.9,52.4,30.28,SE,135,0.0,-999.0,98,-99.99,,,0.00,Acu-Link.com,2013-08-18 06:51:00,
2013-08-18 03:06:00,52.9,52.4,30.27,ESE,112,0.0,-999.0,98,-99.99,,,0.00,Acu-Link.com,2013-08-18 07:06:00,
2013-08-18 03:22:00,52.7,52.2,30.27,East,90,0.0,-999.0,98,-99.99,,,0.00,Acu-Link.com,2013-08-18 07:22:00,
2013-08-18 03:37:00,52.5,52.0,30.28,NE,45,0.0,-999.0,98,-99.99,,,0.00,Acu-Link.com,2013-08-18 07:37:00,
2013-08-18 03:52:00,52.3,51.8,30.28,NE,45,0.0,-999.0,98,-99.99,,,0.00,Acu-Link.com,2013-08-18 07:52:00,
2013-08-18 04:08:00,52.3,51.8,30.28,ESE,112,0.0,-999.0,98,-99.99,,,0.00,Acu-Link.com,2013-08-18 08:08:00,
2013-08-18 04:23:00,52.3,51.8,30.27,ESE,112,0.0,-999.0,98,-99.99,,,0.00,Acu-Link.com,2013-08-18 08:23:00,
2013-08-18 04:38:00,52.2,51.7,30.27,ESE,112,0.0,-999.0,98,-99.99,,,0.00,Acu-Link.com,2013-08-18 08:38:00,
2013-08-18 04:53:00,52.2,51.7,30.27,NNE,22,0.0,-999.0,98,-99.99,,,0.00,Acu-Link.com,2013-08-18 08:53:00,
2013-08-18 05:09:00,51.8,51.3,30.27,NNE,22,0.0,-999.0,98,-99.99,,,0.00,Acu-Link.com,2013-08-18 09:09:00,
2013-08-18 05:24:00,51.6,51.1,30.27,East,90,0.0,-999.0,98,-99.99,,,0.00,Acu-Link.com,2013-08-18 09:24:00,
2013-08-18 05:39:00,51.6,51.1,30.28,NE,45,0.0,-999.0,98,-99.99,,,0.00,Acu-Link.com,2013-08-18 09:39:00,
2013-08-18 05:54:00,51.6,51.1,30.28,ESE,112,0.0,-999.0,98,-99.99,,,0.00,Acu-Link.com,2013-08-18 09:54:00,
2013-08-18 06:09:00,51.6,51.1,30.28,ESE,112,0.0,-999.0,98,-99.99,,,0.00,Acu-Link.com,2013-08-18 10:09:00,
2013-08-18 06:24:00,51.6,51.1,30.28,ESE,112,0.0,-999.0,98,-99.99,,,0.00,Acu-Link.com,2013-08-18 10:24:00,
2013-08-18 06:40:00,51.6,51.1,30.28,NNE,22,0.0,-999.0,98,-99.99,,,0.00,Acu-Link.com,2013-08-18 10:40:00,
2013-08-18 06:55:00,52.0,51.5,30.28,NNE,22,0.0,-999.0,98,-99.99,,,0.00,Acu-Link.com,2013-08-18 10:55:00,
2013-08-18 07:11:00,52.3,51.8,30.28,NE,45,0.0,-999.0,98,-99.99,,,0.00,Acu-Link.com,2013-08-18 11:11:00,
2013-08-18 07:26:00,53.1,52.5,30.28,NNE,22,0.0,-999.0,98,-99.99,,,0.00,Acu-Link.com,2013-08-18 11:26:00,
2013-08-18 07:42:00,54.0,53.4,30.29,ESE,112,0.0,-999.0,98,-99.99,,,0.00,Acu-Link.com,2013-08-18 11:42:00,
2013-08-18 07:57:00,56.3,55.7,30.28,NNE,22,0.0,-999.0,98,-99.99,,,0.00,Acu-Link.com,2013-08-18 11:57:00,
2013-08-18 08:12:00,57.6,57.0,30.28,NE,45,0.0,-999.0,98,-99.99,,,0.00,Acu-Link.com,2013-08-18 12:12:00,
2013-08-18 08:27:00,59.2,58.6,30.28,NNE,22,1.1,-999.0,98,-99.99,,,0.00,Acu-Link.com,2013-08-18 12:27:00,
2013-08-18 08:43:00,60.3,59.4,30.28,NNE,22,2.2,-999.0,97,-99.99,,,0.00,Acu-Link.com,2013-08-18 12:43:00,
2013-08-18 08:58:00,61.5,60.1,30.28,NNE,22,1.7,-999.0,95,-99.99,,,0.00,Acu-Link.com,2013-08-18 12:58:00,
2013-08-18 09:13:00,63.1,60.1,30.27,NE,45,2.2,-999.0,90,-99.99,,,0.00,Acu-Link.com,2013-08-18 13:13:00,
2013-08-18 09:28:00,64.2,60.9,30.27,SE,135,0.0,-999.0,89,-99.99,,,0.00,Acu-Link.com,2013-08-18 13:28:00,
2013-08-18 09:44:00,65.7,61.7,30.27,ESE,112,0.0,-999.0,87,-99.99,,,0.00,Acu-Link.com,2013-08-18 13:44:00,
2013-08-18 09:59:00,67.1,62.4,30.27,SSE,157,0.0,-999.0,85,-99.99,,,0.00,Acu-Link.com,2013-08-18 13:59:00,
2013-08-18 10:14:00,68.2,62.8,30.27,SW,225,0.0,-999.0,83,-99.99,,,0.00,Acu-Link.com,2013-08-18 14:14:00,
2013-08-18 10:29:00,69.6,62.8,30.27,ESE,112,0.0,-999.0,79,-99.99,,,0.00,Acu-Link.com,2013-08-18 14:29:00,
2013-08-18 10:45:00,70.3,62.4,30.27,NNW,337,1.7,-999.0,76,-99.99,,,0.00,Acu-Link.com,2013-08-18 14:45:00,
2013-08-18 11:00:00,71.6,64.4,30.26,NNE,22,0.0,-999.0,78,-99.99,,,0.00,Acu-Link.com,2013-08-18 15:00:00,
2013-08-18 11:15:00,72.1,63.7,30.26,ESE,112,1.1,-999.0,75,-99.99,,,0.00,Acu-Link.com,2013-08-18 15:15:00,
2013-08-18 11:30:00,72.9,64.1,30.26,West,270,0.0,-999.0,74,-99.99,,,0.00,Acu-Link.com,2013-08-18 15:30:00,
2013-08-18 11:46:00,73.2,62.4,30.25,NE,45,0.0,-999.0,69,-99.99,,,0.00,Acu-Link.com,2013-08-18 15:46:00,
2013-08-18 12:01:00,74.3,63.9,30.24,West,270,1.1,-999.0,70,-99.99,,,0.00,Acu-Link.com,2013-08-18 16:01:00,
2013-08-18 12:16:00,74.8,61.8,30.24,North,0,0.0,-999.0,64,-99.99,,,0.00,Acu-Link.com,2013-08-18 16:16:00,
2013-08-18 12:32:00,75.0,63.7,30.23,SW,225,1.7,-999.0,68,-99.99,,,0.00,Acu-Link.com,2013-08-18 16:32:00,
2013-08-18 12:47:00,76.1,62.1,30.23,NE,45,0.0,-999.0,62,-99.99,,,0.00,Acu-Link.com,2013-08-18 16:47:00,
2013-08-18 13:02:00,76.3,61.8,30.23,WSW,247,0.0,-999.0,61,-99.99,,,0.00,Acu-Link.com,2013-08-18 17:02:00,
2013-08-18 13:18:00,76.3,63.2,30.22,SW,225,0.0,-999.0,64,-99.99,,,0.00,Acu-Link.com,2013-08-18 17:18:00,
2013-08-18 13:33:00,77.2,63.2,30.22,SSW,202,1.7,-999.0,62,-99.99,,,0.00,Acu-Link.com,2013-08-18 17:33:00,
2013-08-18 13:48:00,77.4,61.4,30.22,South,180,0.0,-999.0,58,-99.99,,,0.00,Acu-Link.com,2013-08-18 17:48:00,
2013-08-18 14:03:00,76.6,62.1,30.21,SSE,157,0.0,-999.0,61,-99.99,,,0.00,Acu-Link.com,2013-08-18 18:03:00,
2013-08-18 14:19:00,76.3,60.9,30.20,South,180,1.1,-999.0,59,-99.99,,,0.00,Acu-Link.com,2013-08-18 18:19:00,
2013-08-18 14:34:00,74.8,61.3,30.19,SSW,202,0.0,-999.0,63,-99.99,,,0.00,Acu-Link.com,2013-08-18 18:34:00,
2013-08-18 14:49:00,76.1,60.2,30.19,ESE,112,0.0,-999.0,58,-99.99,,,0.00,Acu-Link.com,2013-08-18 18:49:00,
2013-08-18 15:05:00,76.5,61.1,30.18,SSW,202,0.0,-999.0,59,-99.99,,,0.00,Acu-Link.com,2013-08-18 19:05:00,
2013-08-18 15:20:00,77.5,62.0,30.17,SSE,157,3.7,-999.0,59,-99.99,,,0.00,Acu-Link.com,2013-08-18 19:20:00,
2013-08-18 15:35:00,77.2,61.7,30.17,East,90,1.1,-999.0,59,-99.99,,,0.00,Acu-Link.com,2013-08-18 19:35:00,
2013-08-18 15:51:00,76.5,61.6,30.16,North,0,0.0,-999.0,60,-99.99,,,0.00,Acu-Link.com,2013-08-18 19:51:00,
2013-08-18 16:06:00,75.6,62.1,30.15,NNW,337,1.1,-999.0,63,-99.99,,,0.00,Acu-Link.com,2013-08-18 20:06:00,
2013-08-18 16:21:00,74.7,62.1,30.15,South,180,0.0,-999.0,65,-99.99,,,0.00,Acu-Link.com,2013-08-18 20:21:00,
2013-08-18 16:36:00,74.8,61.3,30.14,NNE,22,0.0,-999.0,63,-99.99,,,0.00,Acu-Link.com,2013-08-18 20:36:00,
2013-08-18 16:51:00,74.3,61.3,30.14,NNW,337,0.0,-999.0,64,-99.99,,,0.00,Acu-Link.com,2013-08-18 20:51:00,
2013-08-18 17:06:00,73.8,61.7,30.14,West,270,1.1,-999.0,66,-99.99,,,0.00,Acu-Link.com,2013-08-18 21:06:00,
2013-08-18 17:21:00,73.4,62.2,30.13,NW,315,0.0,-999.0,68,-99.99,,,0.00,Acu-Link.com,2013-08-18 21:21:00,
2013-08-18 17:37:00,73.0,62.2,30.13,NW,315,0.0,-999.0,69,-99.99,,,0.00,Acu-Link.com,2013-08-18 21:37:00,
2013-08-18 17:52:00,72.5,62.1,30.12,NE,45,0.0,-999.0,70,-99.99,,,0.00,Acu-Link.com,2013-08-18 21:52:00,
2013-08-18 18:08:00,71.6,62.9,30.12,SSW,202,0.0,-999.0,74,-99.99,,,0.00,Acu-Link.com,2013-08-18 22:08:00,
2013-08-18 18:23:00,71.1,63.1,30.12,SW,225,0.0,-999.0,76,-99.99,,,0.00,Acu-Link.com,2013-08-18 22:23:00,
2013-08-18 18:38:00,70.5,62.9,30.12,SSW,202,0.0,-999.0,77,-99.99,,,0.00,Acu-Link.com,2013-08-18 22:38:00,
2013-08-18 18:54:00,69.8,63.3,30.12,SSW,202,0.0,-999.0,80,-99.99,,,0.00,Acu-Link.com,2013-08-18 22:54:00,
2013-08-18 19:09:00,69.1,63.0,30.11,SSW,202,0.0,-999.0,81,-99.99,,,0.00,Acu-Link.com,2013-08-18 23:09:00,
2013-08-18 19:24:00,67.8,62.4,30.11,SSW,202,0.0,-999.0,83,-99.99,,,0.00,Acu-Link.com,2013-08-18 23:24:00,
2013-08-18 19:39:00,66.7,62.4,30.11,SSW,202,0.0,-999.0,86,-99.99,,,0.00,Acu-Link.com,2013-08-18 23:39:00,
2013-08-18 19:55:00,65.8,61.8,30.12,South,180,0.0,-999.0,87,-99.99,,,0.00,Acu-Link.com,2013-08-18 23:55:00,
2013-08-18 20:10:00,65.3,62.0,30.11,South,180,0.0,-999.0,89,-99.99,,,0.00,Acu-Link.com,2013-08-19 00:10:00,
2013-08-18 20:25:00,64.4,61.7,30.12,South,180,0.0,-999.0,91,-99.99,,,0.00,Acu-Link.com,2013-08-19 00:25:00,
2013-08-18 20:41:00,63.9,61.8,30.11,South,180,0.0,-999.0,93,-99.99,,,0.00,Acu-Link.com,2013-08-19 00:41:00,
2013-08-18 20:56:00,63.3,61.5,30.11,South,180,0.0,-999.0,94,-99.99,,,0.00,Acu-Link.com,2013-08-19 00:56:00,
2013-08-18 21:11:00,63.0,61.5,30.11,SSE,157,0.0,-999.0,95,-99.99,,,0.00,Acu-Link.com,2013-08-19 01:11:00,
2013-08-18 21:27:00,62.4,60.9,30.10,NE,45,0.0,-999.0,95,-99.99,,,0.00,Acu-Link.com,2013-08-19 01:27:00,
2013-08-18 21:42:00,61.9,60.5,30.10,SE,135,0.0,-999.0,95,-99.99,,,0.00,Acu-Link.com,2013-08-19 01:42:00,
2013-08-18 21:57:00,61.5,60.3,30.09,SSE,157,0.0,-999.0,96,-99.99,,,0.00,Acu-Link.com,2013-08-19 01:57:00,
2013-08-18 22:13:00,61.0,59.8,30.09,West,270,0.0,-999.0,96,-99.99,,,0.00,Acu-Link.com,2013-08-19 02:13:00,
2013-08-18 22:28:00,60.6,59.7,30.09,ESE,112,0.0,-999.0,97,-99.99,,,0.00,Acu-Link.com,2013-08-19 02:28:00,
2013-08-18 22:43:00,60.3,59.4,30.09,ESE,112,0.0,-999.0,97,-99.99,,,0.00,Acu-Link.com,2013-08-19 02:43:00,
2013-08-18 22:58:00,59.7,58.8,30.09,ESE,112,0.0,-999.0,97,-99.99,,,0.00,Acu-Link.com,2013-08-19 02:58:00,
2013-08-18 23:14:00,59.7,58.8,30.09,SE,135,0.0,-999.0,97,-99.99,,,0.00,Acu-Link.com,2013-08-19 03:14:00,
2013-08-18 23:29:00,59.2,58.6,30.08,NNW,337,0.0,-999.0,98,-99.99,,,0.00,Acu-Link.com,2013-08-19 03:29:00,
2013-08-18 23:45:00,59.0,58.4,30.08,ESE,112,0.0,-999.0,98,-99.99,,,0.00,Acu-Link.com,2013-08-19 03:45:00,